STARLINK-30534, 57992

Orbit data source: Space-Track

STARLINK-30534, 57992 is a payload satellite owned by SpaceX/Seattle (US) in LEO that was launched on Thu, 05 Oct 2023 UTC via an FALCON 9 launch vehicle from the Air Force Eastern Test Range (AFETR). Payload-class satellites include a variety of spacecraft equipped with specific instruments for various scientific and technological missions. These include communications satellites like Starlink; space stations such as the ISS; scientific satellites like the Hubble; Earth observation satellites from companies like Planet Labs, Umbra, and HawkEye 360; GPS; miniature CubeSats for education and research; and military/defense satellites.

Loading next visibility...
Identifier
57992, 2023-153B
Orbit
LEO
Country
Flag of USUS
Related business
Manufacturer
SpaceX/Seattle
Mission
Operational Commercial Communications
Bus & Motor
STARLINK V2M, Unknown motor
Mass
730 kg wet, ~700 kg dry
Launch date (UTC)
2023-10-05 (3 years ago)
Launch vehicle
FALCON 9
Launch site
Air Force Eastern Test Range (AFETR)
Object type
Payload
Rocket body
Debris
Shape & HBR
Box + 2 Pan, 17.7 m
Radar Cross Section
33.884 m², Large (>1 m²)

Expand to show TLE details & history
Last TLE update: 3 days ago

TLE from 3 days ago
0 STARLINK-30534
1 57992U 23153B   26170.39248114  .00000567  00000-0  30130-4 0  9993
2 57992  43.0017 212.4237 0002346 283.4078  76.6513 15.27580206150355
Epoch: 2026-06-19T09:25Z
TLE epoch observation values (Epoch: 2026-06-19T09:25:10.370Z)
Latitude
0.00004°
Longitude
163.50843°
Altitude
482.453 km
Speed
7.626 km/s
True Right ascension
14h 09m 41s
True Declination
0° 00' 00"
Sunlit
Object was in full shadow at epoch
Visualization orbit readout
Latitude
Unknown
Longitude
Unknown
Altitude
Unknown
Speed
Unknown
Apparent Right ascension
Unknown
Apparent Declination
Unknown
Sunlit
N/A
Visualization observer readout
Local Sidereal Time
21:24:15
Azimuth
Unknown
Elevation
Unknown
Doppler factor
Unknown
Orbital elements
Apogee altitude
486.603 km
Perigee altitude
483.383 km
Semi-major axis
6,863.13 km
Eccentricity
0.00023
Inclination
43.0017°
RAAN
212.4237°
Arg. of periapsis
283.4078°
True anomaly
76.67746°
Mean anomaly
76.6513°
Eccentric anomaly
76.66438°
Mean motion
3.81733 °/min
Orbital period
94.31 mins
BSTAR
0.00003013
Loading maneuver chart data...
Computing Atmospheric mass density...
Loading historical data...
Loading historical data...
Loading historical data...
Loading historical data...
Loading historical data...
Loading historical data...
Loading historical data...

Documentation

Showing up to 5 results
|